Date String (YYYY-MM-DD hh:mm:ss) UTC,Instrument flags,Ambient pressure (hPa),Sample flow (lpm),Bypass flow (lpm),Sample temperature (°C),Ambient temperature (°C),ASC tube jacket temperature (°C),LED temperature (°C),Box temperature (°C),Sample RH (%),Span deviation,Mass concentration (μg/m³),Mass concentration (μg/m³),Mass concentration (μg/m³)
DateTimeUTC,F1_M11,P_M11,Q1_M11,Q2_M11,T1_M11,T2_M11,T3_M11,T4_M11,T5_M11,U1_M11,ZSPAN_M11,X0_M11,X2_M11,X1_M11
2022-10-16 23:00:00,,0833.0,4.99,0.00,30.4,29.2,00.0,39.1,32.2,13.3,0001.1,0010.55,0006.83,0006.29
2022-10-16 23:01:00,,0833.1,5.02,0.00,30.4,29.2,00.0,39.1,32.2,13.2,0000.0,0010.48,0006.83,0006.29
2022-10-16 23:02:00,,0833.1,5.00,0.00,30.4,29.2,00.0,39.1,32.3,13.2,0000.0,0010.43,0006.82,0006.28
2022-10-16 23:03:00,,0833.1,5.00,0.00,30.4,29.3,00.0,39.1,32.3,13.2,0000.0,0010.43,0006.81,0006.28
2022-10-16 23:04:00,,0833.1,4.99,0.00,30.5,29.3,00.0,39.1,32.3,13.2,0000.0,0010.51,0006.84,0006.30
2022-10-16 23:05:00,,0833.1,5.02,0.00,30.5,29.3,00.0,39.2,32.3,13.1,0000.0,0010.41,0006.82,0006.30
2022-10-16 23:06:00,,0833.0,4.99,0.00,30.5,29.3,00.0,39.2,32.3,13.2,0000.0,0010.09,0006.80,0006.30
2022-10-16 23:07:00,,0833.1,5.01,0.00,30.5,29.3,00.0,39.2,32.3,13.1,0000.0,0010.34,0006.79,0006.31
2022-10-16 23:08:00,,0833.0,4.99,0.00,30.5,29.3,00.0,39.2,32.3,13.1,0000.0,0010.41,0006.79,0006.32
2022-10-16 23:09:00,,0833.0,4.99,0.00,30.5,29.3,00.0,39.2,32.3,13.0,0000.0,0011.35,0006.83,0006.33
2022-10-16 23:10:00,,0833.1,5.02,0.00,30.5,29.3,00.0,39.2,32.4,13.0,0000.0,0011.12,0006.80,0006.32
2022-10-16 23:11:00,,0833.0,4.99,0.00,30.6,29.3,00.0,39.2,32.4,13.1,0000.0,0011.02,0006.77,0006.31
2022-10-16 23:12:00,,0833.1,4.99,0.00,30.6,29.4,00.0,39.3,32.4,13.1,0000.0,0011.03,0006.74,0006.31
2022-10-16 23:13:00,,0833.0,5.00,0.00,30.6,29.4,00.0,39.3,32.4,13.1,0000.0,0011.06,0006.72,0006.30
2022-10-16 23:14:00,,0833.0,5.01,0.00,30.6,29.4,00.0,39.3,32.4,13.1,0000.0,0011.04,0006.70,0006.27
2022-10-16 23:15:00,,0833.1,5.00,0.00,30.6,29.4,00.0,39.3,32.4,13.1,0000.0,0011.31,0006.65,0006.22
2022-10-16 23:16:00,,0833.1,5.00,0.00,30.6,29.4,00.0,39.3,32.4,13.3,0000.0,0011.26,0006.62,0006.20
2022-10-16 23:17:00,,0833.0,5.00,0.00,30.6,29.4,00.0,39.3,32.4,13.3,0000.0,0011.28,0006.62,0006.18
2022-10-16 23:18:00,,0833.0,4.99,0.00,30.6,29.4,00.0,39.3,32.4,13.3,0000.0,0011.80,0006.63,0006.19
2022-10-16 23:19:00,,0833.0,5.01,0.00,30.6,29.4,00.0,39.3,32.4,13.3,0000.0,0012.53,0006.63,0006.20
2022-10-16 23:20:00,,0833.0,4.99,0.00,30.6,29.3,00.0,39.3,32.4,13.3,0000.0,0011.96,0006.63,0006.21
2022-10-16 23:21:00,,0833.0,5.01,0.00,30.6,29.3,00.0,39.4,32.4,13.2,0000.0,0012.02,0006.67,0006.24
2022-10-16 23:22:00,,0833.0,4.99,0.00,30.6,29.3,00.0,39.4,32.4,13.2,0000.0,0012.99,0006.73,0006.28
2022-10-16 23:23:00,,0833.0,5.02,0.00,30.6,29.3,00.0,39.4,32.4,13.2,0000.0,0013.20,0006.78,0006.31
2022-10-16 23:24:00,,0833.0,4.98,0.00,30.6,29.3,00.0,39.4,32.4,13.3,0000.0,0013.17,0006.80,0006.33
2022-10-16 23:25:00,,0833.0,5.01,0.00,30.6,29.4,00.0,39.4,32.4,13.2,0001.0,0013.25,0006.83,0006.37
2022-10-16 23:26:00,,0833.0,4.99,0.00,30.7,29.4,00.0,39.4,32.5,13.3,0001.1,0013.26,0006.86,0006.41
2022-10-16 23:27:00,,0833.0,5.01,0.00,30.7,29.4,00.0,39.4,32.5,13.2,0000.0,0013.62,0006.87,0006.43
2022-10-16 23:28:00,,0833.0,4.99,0.00,30.7,29.4,00.0,39.4,32.5,13.2,0000.0,0013.71,0006.88,0006.44
2022-10-16 23:29:00,,0833.0,5.01,0.00,30.7,29.4,00.0,39.4,32.5,13.2,0000.0,0013.12,0006.87,0006.45
2022-10-16 23:30:00,,0833.0,4.99,0.00,30.7,29.4,00.0,39.4,32.5,13.1,0000.0,0012.22,0006.90,0006.46
2022-10-16 23:31:00,,0833.0,5.01,0.00,30.7,29.4,00.0,39.4,32.5,13.1,0000.0,0012.17,0006.95,0006.47
2022-10-16 23:32:00,,0833.0,4.99,0.00,30.7,29.3,00.0,39.4,32.5,13.1,0000.0,0012.04,0006.95,0006.46
2022-10-16 23:33:00,,0833.1,5.01,0.00,30.7,29.3,00.0,39.4,32.5,13.1,0000.0,0011.06,0006.95,0006.46
2022-10-16 23:34:00,,0833.0,4.99,0.00,30.7,29.3,00.0,39.4,32.5,13.1,0000.0,0010.71,0006.92,0006.44
2022-10-16 23:35:00,,0833.1,5.01,0.00,30.7,29.3,00.0,39.4,32.5,12.9,0000.0,0010.66,0006.90,0006.44
2022-10-16 23:36:00,,0833.1,4.99,0.00,30.7,29.4,00.0,39.4,32.5,12.9,0000.0,0010.71,0006.92,0006.43
2022-10-16 23:37:00,,0833.1,5.01,0.00,30.7,29.4,00.0,39.4,32.5,12.9,0000.0,0010.28,0006.91,0006.43
2022-10-16 23:38:00,,0833.1,4.99,0.00,30.7,29.4,00.0,39.5,32.5,12.9,0000.0,0009.88,0006.89,0006.43
2022-10-16 23:39:00,,0833.1,4.99,0.00,30.7,29.4,00.0,39.5,32.5,12.9,0000.0,0010.07,0006.87,0006.42
2022-10-16 23:40:00,,0833.1,5.01,0.00,30.7,29.4,00.0,39.5,32.5,12.9,0000.0,0010.25,0006.88,0006.41
2022-10-16 23:41:00,,0833.1,4.99,0.00,30.7,29.1,00.0,39.5,32.5,12.9,0000.0,0010.24,0006.87,0006.39
2022-10-16 23:42:00,,0833.1,5.00,0.00,30.7,27.8,00.0,39.4,32.3,12.9,0000.0,0010.13,0006.83,0006.35
2022-10-16 23:43:00,,0833.1,5.00,0.00,30.6,26.5,00.0,39.3,32.1,13.0,0000.0,0010.17,0006.83,0006.33
2022-10-16 23:44:00,,0833.1,5.01,0.00,30.5,26.4,00.0,39.3,32.0,13.0,0000.0,0010.22,0006.78,0006.31
2022-10-16 23:45:00,,0833.1,4.98,0.00,30.4,26.7,00.0,39.2,31.9,13.1,0000.0,0010.17,0006.75,0006.29
2022-10-16 23:46:00,,0833.1,5.01,0.00,30.3,27.1,00.0,39.2,31.8,13.2,0000.0,0010.23,0006.77,0006.31
2022-10-16 23:47:00,,0833.1,4.99,0.00,30.2,27.4,00.0,39.1,31.9,13.2,0000.0,0010.15,0006.75,0006.30
2022-10-16 23:48:00,,0833.1,5.02,0.00,30.2,27.7,00.0,39.1,31.9,13.2,0000.0,0010.07,0006.71,0006.29
2022-10-16 23:49:00,,0833.1,4.99,0.00,30.2,28.0,00.0,39.1,31.9,13.3,0000.0,0010.11,0006.71,0006.27
2022-10-16 23:50:00,,0833.1,5.00,0.00,30.2,28.2,00.0,39.1,31.9,13.4,0000.0,0009.99,0006.73,0006.27
2022-10-16 23:51:00,,0833.1,5.00,0.00,30.2,28.3,00.0,39.0,31.9,13.4,0000.0,0010.52,0006.70,0006.26
2022-10-16 23:52:00,,0833.1,4.99,0.00,30.2,28.5,00.0,39.0,31.9,13.4,0000.0,0010.65,0006.68,0006.23
2022-10-16 23:53:00,,0833.1,5.00,0.00,30.2,28.6,00.0,39.0,32.0,13.4,0000.0,0010.54,0006.65,0006.22
2022-10-16 23:54:00,,0833.1,5.00,0.00,30.2,28.6,00.0,39.0,32.0,13.4,0000.0,0010.51,0006.57,0006.19
2022-10-16 23:55:00,,0833.1,5.00,0.00,30.2,28.7,00.0,39.0,32.0,13.3,0000.0,0010.87,0006.56,0006.17
2022-10-16 23:56:00,,0833.1,5.00,0.00,30.2,28.8,00.0,39.0,32.0,13.3,0000.0,0011.06,0006.51,0006.13
2022-10-16 23:57:00,,0833.1,5.00,0.00,30.2,28.8,00.0,39.0,32.0,13.3,0000.0,0010.98,0006.46,0006.08
2022-10-16 23:58:00,,0833.1,5.00,0.00,30.2,28.8,00.0,39.0,32.0,13.3,0000.0,0010.96,0006.42,0006.04
2022-10-16 23:59:00,,0833.1,5.00,0.00,30.2,28.9,00.0,39.0,32.0,13.2,0000.0,0010.97,0006.40,0006.01
